Regional Weather Roundup
Issued by NWS

Home | Current Version | Previous Version | Text Only | Print | Product List | Glossary Off
Versions: 1 2 3 4 5 6 7 8 9 10 11 12 13 14 15 16 17 18 19 20 21 22 23 24 25 26 27 28 29 30 31 32 33 34 35 36 37 38 39 40 41 42 43 44 45 46 47 48 49 50

000
ASUS43 KMPX 050910
RWRMN
WEATHER ROUNDUP FOR MINNESOTA
NATIONAL WEATHER SERVICE TWIN CITIES/CHANHASSEN MN
400 AM CDT TUE MAY 05 2015


NOTE: "FAIR" INDICATES FEW OR NO CLOUDS BELOW 12,000 FEET WITH NO
SIGNIFICANT WEATHER AND/OR OBSTRUCTIONS TO VISIBILITY. N/A MEANS
CURRENT SKY AND/OR WEATHER CONDITIONS ARE NOT AVAILABLE.

MNZ060>063-068>070-051000-
   Twin Cities Metro

CITY           SKY/WX    TMP DP  RH WIND       PRES   REMARKS
TWIN CITIES    PTCLDY    54  28  36 E10       30.18S
ST PAUL        PTCLDY    52  28  39 CALM      30.19S
CRYSTAL        CLEAR     50  29  44 CALM      30.18S
BLAINE         CLEAR     48  30  49 NE3       30.19S
LAKEVILLE      MOCLDY    46  34  61 NE3       30.18R
EDEN PRAIRIE   PTCLDY    52  30  43 NE6       30.17S
SOUTH ST PAUL  PTCLDY    53  28  37 CALM      30.18S
LAKE ELMO      FAIR      50  32  50 NE7       30.20S
$$
MNZ001>005-007-008-013>017-022>024-027-028-051000-
   Northwest Minnesota

CITY           SKY/WX    TMP DP  RH WIND       PRES   REMARKS
BEMIDJI        FAIR      35  27  73 CALM      30.23S
HALLOCK        CLEAR     39  19  45 SE9       30.16S
ROSEAU         CLEAR     43  28  56 S9        30.18S
WARROAD        FAIR      46  28  49 S6        30.20R
THIEF RVR FALL CLEAR     45  25  45 SE8       30.20S
CROOKSTON      CLEAR     41  28  60 SE9       30.19F
FOSSTON        CLEAR     43  23  45 SE3       30.22S
DETROIT LAKES  CLEAR     46  32  57 E3        30.21F
MOORHEAD       CLEAR     45  28  53 SE6       30.18F
PARK RAPIDS    CLEAR     40  31  70 CALM      30.22S
MAHNOMEN       FAIR      49  30  48 SE8       30.19F
$$
MNZ006-009>011-018-025>026-051000-
   North Central Minnesota

CITY           SKY/WX    TMP DP  RH WIND       PRES   REMARKS
BAUDETTE       CLEAR     38  31  76 CALM      30.21S
FLAG ISLAND    CLEAR     48  43  81 SE6       30.18S
INTL FALLS     CLEAR     31  27  85 CALM      30.23R
WASKISH        CLEAR     43  28  56 CALM      30.22S
BIG FORK       CLEAR     28  25  86 CALM      30.25S
LONGVILLE      CLEAR     30  30 100 CALM      30.24S
GRAND RAPIDS   CLEAR     34  25  69 CALM      30.25S
CRANE LAKE     CLEAR     27  27 100 CALM      30.27S
ORR            CLEAR     43  25  49 CALM      30.23S
COOK           CLEAR     28  27  93 CALM      30.26S FOG
WALKER         FAIR      37  27  66 CALM      30.23S
$$
MNZ012-019>021-037-051000-
   Northeast Minnesota

CITY           SKY/WX    TMP DP  RH WIND       PRES   REMARKS
DULUTH         CLEAR     38  27  64 NE3       30.25S
ELY            CLEAR     30  27  86 CALM      30.26S
HIBBING        CLEAR     28  23  81 NW3       30.25S
EVELETH        CLEAR     30  28  93 CALM      30.27S
DULUTH HARBOR  CLEAR     41  34  75 CALM      30.27S
TWO HARBORS    CLEAR     37  28  70 CALM      30.24S
SILVER BAY     CLEAR     30  27  86 CALM      30.25S
GRAND MARAIS     N/A     34  30  85 W3        30.27R
G MARAIS ARPRT CLEAR     30  25  80 CALM      30.28S
$$
MNZ029>031-032-039>041-046>048-054>057-064-051000-
   West Central Minnesota

CITY           SKY/WX    TMP DP  RH WIND       PRES   REMARKS
FERGUS FALLS   CLEAR     48  28  46 E3        30.20S
WHEATON        CLEAR     39  28  65 E6        30.19S
MORRIS         CLEAR     45  28  53 E10       30.17S
ALEXANDRIA     CLEAR     47  26  44 E8        30.21S
ELBOW LAKE     FAIR      51  30  44 E9        30.18F
WADENA         CLEAR     36  28  75 E3        30.21S
GLENWOOD       CLEAR     45  27  49 NE9       30.20F
APPLETON       CLEAR     45  30  57 E7        30.16F
BENSON         CLEAR     48  25  40 E6        30.18S
ORTONVILLE     CLEAR     48  32  53 E8        30.17S
MADISON        CLEAR     43  28  56 CALM      30.17S
WILLMAR        FAIR      54  27  35 E10       30.19S
$$
MNZ033>034-036-042>043-049>051-058-059-051000-
   Central Minnesota

CITY           SKY/WX    TMP DP  RH WIND       PRES   REMARKS
ST CLOUD       CLEAR     50  21  32 E6        30.20F
SAUK CENTRE    FAIR      48  25  40 E8        30.20F
PAYNESVILLE    CLEAR     40  29  63 CALM      30.20S
AITKIN         CLEAR     30  25  80 CALM      30.22F
PINE RIVER     CLEAR     30  27  86 CALM      30.25F
BRAINERD       CLEAR     32  27  81 CALM      30.23F
STAPLES        CLEAR     37  30  75 CALM      30.22S
LONG PRAIRIE   FAIR      41  28  60 CALM      30.21S
LITTLE FALLS   CLEAR     39  28  65 NE3       30.21F
LITCHFIELD     CLEAR     52  28  40 NE7       30.19S
BUFFALO        CLEAR     49  29  46 NE7       30.20S
MAPLE LAKE     CLEAR     47  31  53 N3        30.20S
$$
MNZ037-044-045-052-053-051000-
   East Central Minnesota

CITY           SKY/WX    TMP DP  RH WIND       PRES   REMARKS
PRINCETON      CLEAR     46  25  42 CALM      30.21S
MORA           CLEAR     36  28  75 CALM      30.23F
CAMBRIDGE      CLEAR     43  30  61 CALM      30.20S
RUSH CITY      PTCLDY    47  28  48 NE5       30.22F
MOOSE LAKE     CLEAR     36  28  75 NE3       30.23F
HINCKLEY       FAIR      34  30  86 CALM      30.23F
CLOQUET        CLEAR     32  25  74 CALM      30.25S
MCGREGOR       CLEAR     32  30  93 CALM      30.24S
$$
MNZ071>073-080-081-089-090-097-098-051000-
   Southwest Minnesota

CITY           SKY/WX    TMP DP  RH WIND       PRES   REMARKS
MONTEVIDEO     CLEAR     43  28  56 E7        30.18S
GRANITE FALLS  CLEAR     47  28  47 NE6       30.18S
CANBY          CLEAR     39  30  69 W3        30.18R
MARSHALL       CLEAR     41  21  45 CALM      30.17R
REDWOOD FALLS  FAIR      54  26  34 E7        30.16S
OLIVIA         CLEAR     46  27  46 NE6       30.16S
PIPESTONE      CLEAR     48  30  49 E6        30.14S
WINDOM         PTCLDY    50  32  50 NE7       30.15R
WORTHINGTON    CLOUDY    46  28  49 NE8       30.14F
JACKSON        PTCLDY    54  32  43 NE9       30.14S
TRACY          CLEAR     48  31  51 E5        30.16S
SLAYTON        PTCLDY    49  31  48 CALM      30.16R
$$
MNZ065>067-074>077-082>085-091>093-051000-
   South Central Minnesota

CITY           SKY/WX    TMP DP  RH WIND       PRES   REMARKS
MANKATO        MOCLDY    54  37  54 NE8       30.15F
NEW ULM        PTCLDY    54  27  35 NE8       30.15S
ST JAMES       PTCLDY    50  34  53 N6        30.15S
FAIRMONT       CLOUDY    55  30  38 N7        30.13S
GLENCOE        PTCLDY    49  31  50 NE3       30.16F
FARIBAULT      MOCLDY    50  37  62 N7        30.16S
OWATONNA       MOCLDY    52  30  43 NE5       30.15S
WASECA         MOCLDY    52  34  50 NE8       30.16S
ALBERT LEA     CLOUDY    55  39  54 NE7       30.12F
$$
MNZ078>079-086>088-094>096-051000-
   Southeast Minnesota

CITY           SKY/WX    TMP DP  RH WIND       PRES   REMARKS
ROCHESTER      CLOUDY    54  37  52 NE9       30.16S
RED WING       MOCLDY    52  32  46 E6        30.16F
STANTON        MOCLDY    46  37  72 NE3       30.16R
DODGE CENTER   CLOUDY    54  34  47 NE5       30.15S
WINONA         CLOUDY    52  46  82 CALM      30.17S
AUSTIN         CLOUDY    55  41  58 NE7       30.13S
PRESTON        CLOUDY    56  38  52 NE5       30.15R
$$
ABBREVIATIONS USED IN REMARKS
   TC - TEMPERATURES IN CELSIUS
  WCI - WIND CHILL INDEX
   HX - HEAT INDEX
  VSB - VISIBILITY
$$



USA.gov is the U.S. government's official web portal to all federal, state and local government web resources and services.